Theta_e
312 312 312 311 311 310 310 308 308 307 307 308 308 311 314 311 307 317 322 325 322 319 311 313 315 312 313 315 313 315 313 312 313 311 313 310 312 311 311 312 312 313 313 311 310 311 308 309 307 309 310 311 313 314 314 315 314 314 312 313 318 320 311 306 307 312 313 314 316 315 314 315 312 313 314 312 310 310 309 309 311 306 307 303 304 302 306
312 312 312 311 310 309 309 308 308 308 307 307 309 310 313 312 312 314 321 326 322 316 307 309 310 310 313 313 312 313 312 311 310 310 311 309 310 310 311 313 314 312 313 312 310 312 306 310 310 309 311 310 315 314 314 314 313 312 313 311 315 308 312 308 305 305 306 309 312 311 314 313 311 311 312 313 313 313 313 314 314 306 307 307 303 299 306
311 312 312 311 310 309 308 308 308 308 308 308 310 308 312 313 317 314 317 325 320 311 313 311 310 309 311 310 309 310 310 311 310 310 309 311 310 309 310 312 313 312 313 312 313 313 311 308 311 313 312 311 315 315 316 314 314 314 322 336 317 310 312 310 302 298 296 297 297 301 305 308 311 313 312 313 312 312 311 306 309 301 307 310 304 304 310
311 312 312 311 311 309 308 308 309 308 308 307 310 311 313 311 308 309 312 317 316 317 317 315 312 311 311 308 309 308 307 310 312 312 311 312 312 312 312 313 314 312 312 310 310 310 312 311 310 312 311 314 314 318 317 316 316 327 332 322 318 312 315 312 308 306 304 305 309 312 313 312 307 309 312 312 312 313 313 311 307 303 307 308 306 309 310
311 312 312 311 311 308 308 308 309 308 307 307 309 313 314 314 309 311 306 312 314 314 315 313 312 309 311 306 309 306 308 310 310 312 308 313 312 312 312 312 310 311 311 310 309 311 310 312 314 312 312 315 317 320 323 320 319 334 320 321 317 319 312 313 314 313 311 311 316 314 314 310 310 310 310 312 311 312 311 309 306 315 310 301 305 315 311
311 311 312 311 310 308 308 309 309 308 307 307 313 313 314 309 311 314 313 308 306 308 310 313 312 312 311 311 310 307 307 308 308 312 312 313 315 310 312 312 312 312 312 314 309 311 311 312 309 314 316 315 316 317 321 319 328 325 317 319 317 313 307 311 312 312 313 314 314 314 313 312 312 311 311 310 311 312 310 312 314 318 307 304 315 317 313
312 311 311 311 309 308 308 309 308 307 306 308 314 310 311 312 312 311 314 312 312 312 312 312 312 311 311 311 309 308 307 307 309 310 310 312 313 312 309 310 313 313 314 314 311 314 308 309 317 315 314 314 315 314 316 319 325 320 318 318 325 318 310 315 313 310 312 312 313 313 311 311 311 311 312 312 311 311 311 312 315 316 314 315 318 318 316
312 311 311 311 310 309 309 308 308 307 306 312 313 309 308 306 307 309 312 312 313 313 312 311 310 309 312 309 309 309 308 307 310 311 310 310 311 314 311 311 313 314 314 315 312 316 315 317 310 319 321 317 320 314 315 315 319 320 316 316 323 316 314 314 312 311 310 312 313 313 312 312 309 311 312 312 311 311 312 312 314 315 314 314 314 314 313
312 311 311 311 310 309 309 309 307 307 307 311 309 306 309 309 312 310 307 310 310 312 312 311 311 309 309 309 308 309 308 308 309 310 312 311 310 311 310 312 313 315 314 314 314 314 314 315 315 316 315 314 317 316 315 317 314 315 316 316 319 314 318 315 313 307 308 310 311 311 313 311 310 311 312 312 311 310 312 312 315 313 313 315 314 312 311
311 311 311 311 311 310 310 308 308 307 307 309 309 303 310 311 314 312 309 307 309 308 310 312 309 307 308 308 308 308 308 309 310 310 311 312 313 313 312 313 313 314 314 313 312 313 314 314 315 316 317 317 317 318 317 317 318 315 315 318 315 313 315 311 310 305 306 310 312 310 310 309 307 308 311 312 313 313 314 315 318 316 314 311 308 309 316
311 311 311 311 311 311 311 310 309 307 309 305 305 305 307 304 304 307 310 307 305 305 307 308 309 307 307 307 307 309 309 309 310 308 310 312 313 314 314 314 312 314 313 312 316 316 316 317 317 318 317 317 317 317 317 317 318 319 318 315 318 318 316 311 313 305 307 309 310 311 307 300 302 319 317 315 312 312 311 312 314 316 316 312 314 315 318
311 311 311 311 311 311 311 310 309 307 307 309 309 306 308 310 309 309 308 303 301 304 305 305 306 307 306 306 306 306 306 307 307 309 308 310 312 314 314 314 314 314 314 318 318 318 318 318 318 319 317 317 317 317 316 316 318 321 320 316 315 314 315 311 316 308 307 311 310 305 299 301 319 318 320 318 316 315 314 314 314 314 317 316 315 317 318
310 311 311 311 311 311 311 310 310 308 308 310 309 304 309 312 308 307 307 304 299 301 301 302 305 305 305 305 305 305 306 307 308 309 310 309 311 313 314 312 312 312 317 315 316 317 316 315 317 318 316 315 315 316 315 316 316 317 317 320 317 314 312 316 311 310 312 308 305 296 300 315 315 317 317 319 318 317 315 313 315 316 316 319 317 317 318
310 311 311 311 311 311 310 310 309 309 307 308 308 307 308 309 306 307 305 304 301 300 300 301 303 304 303 303 303 304 306 307 308 309 308 313 311 310 314 314 313 315 316 317 317 320 316 315 312 311 311 312 313 311 313 315 315 315 316 318 319 318 316 314 308 315 304 305 304 304 313 311 313 312 315 314 314 314 312 308 312 318 319 318 318 318 318
308 310 311 311 311 311 310 310 309 310 309 307 310 308 308 308 308 307 309 308 301 301 304 301 302 301 302 302 304 303 305 306 305 309 310 309 309 313 313 313 315 316 317 317 316 318 315 312 307 305 307 306 302 304 312 310 314 315 316 318 320 324 315 315 308 306 310 304 303 304 304 301 308 315 319 319 319 319 319 314 310 319 319 320 319 318 319
308 309 310 311 311 311 310 310 310 309 309 306 310 309 309 310 311 309 307 305 301 296 304 304 303 302 301 301 303 303 302 304 305 305 305 313 310 312 314 314 316 317 318 317 318 315 314 309 306 305 302 304 307 306 306 309 309 312 316 316 317 320 322 322 310 308 308 305 301 300 299 303 312 315 318 319 320 317 318 311 306 316 319 320 319 317 318
308 309 310 310 311 311 310 310 310 309 308 306 308 308 308 311 309 306 306 307 304 298 304 304 304 303 303 302 305 306 304 304 304 303 304 308 307 309 310 312 318 318 317 315 316 312 311 310 310 308 308 309 305 305 309 307 307 307 312 314 314 313 312 314 309 307 307 306 302 301 306 306 315 317 316 317 320 318 314 302 303 317 318 318 319 317 317
307 308 310 311 311 311 311 310 309 309 309 308 309 307 307 311 311 309 307 304 301 300 305 307 304 303 303 301 300 304 306 307 307 308 306 307 309 305 304 309 311 316 318 313 315 309 309 308 306 306 305 313 313 310 302 307 305 306 307 309 309 310 311 311 306 306 306 305 304 306 308 317 317 315 316 317 318 315 305 298 309 319 320 320 320 319 319
307 308 310 310 311 311 310 310 309 308 310 307 309 309 308 310 311 309 307 304 301 298 305 304 305 302 305 305 303 304 304 302 304 302 303 303 308 304 305 309 311 310 316 314 314 310 308 309 313 311 307 310 310 305 312 308 306 311 312 308 309 310 311 311 311 306 304 306 303 303 308 317 316 317 316 318 313 304 303 321 324 322 319 322 321 320 321
307 308 310 310 310 310 310 310 309 309 310 308 308 306 308 310 311 310 304 301 302 299 302 304 304 301 306 301 303 302 304 305 306 301 302 300 306 306 309 307 313 312 315 316 308 314 308 306 308 312 307 309 311 311 309 310 314 312 310 314 309 309 307 305 305 309 308 309 306 301 296 316 316 316 316 316 309 311 322 324 325 323 323 321 323 322 323
308 308 309 310 310 310 310 310 309 309 310 309 308 306 306 311 311 311 310 306 301 298 302 307 308 305 305 306 306 305 302 302 302 301 303 302 307 307 301 306 305 309 308 309 308 309 312 309 310 309 314 313 313 309 306 308 309 312 312 313 311 319 307 305 307 312 304 304 301 300 311 314 317 316 312 318 317 328 329 324 318 323 324 325 323 326 331
308 308 309 309 310 310 310 310 310 310 310 310 308 307 304 308 310 310 309 308 303 302 304 307 307 305 306 307 306 307 306 305 306 306 302 301 308 305 307 308 309 309 310 309 309 309 311 311 312 310 308 310 312 308 313 306 304 312 313 312 305 318 315 316 307 314 309 307 310 316 320 320 319 320 319 320 322 323 323 323 323 321 322 326 327 327 330
308 308 308 309 309 310 310 310 309 309 309 310 309 307 304 306 308 311 310 305 308 308 309 308 307 307 307 308 310 310 310 310 308 307 306 301 303 308 307 308 308 310 311 310 305 306 308 309 310 313 312 314 312 310 310 308 307 310 307 311 313 314 318 318 318 313 317 317 319 317 319 319 320 320 322 321 321 322 322 322 321 323 324 325 324 327 330
308 308 308 309 309 309 310 309 309 309 309 310 310 308 305 306 307 308 307 307 304 301 306 306 302 303 304 304 307 310 309 308 308 310 312 309 302 305 309 310 309 310 311 310 311 306 307 308 311 312 310 314 312 309 305 305 308 313 312 308 312 314 315 315 310 315 307 304 317 316 314 317 318 319 321 322 323 324 325 325 326 327 328 327 330 330 332
307 308 308 308 309 309 309 309 309 309 309 309 310 309 309 307 309 308 304 300 301 300 298 301 301 304 305 307 309 307 308 311 312 311 310 310 307 304 304 308 310 307 308 309 312 310 310 307 310 309 307 311 311 306 314 310 310 311 307 312 310 310 317 313 313 311 309 312 316 315 315 319 320 319 319 320 323 324 326 328 328 329 330 331 332 333 333
307 308 308 308 308 309 309 309 309 309 309 310 310 308 305 306 309 311 309 307 305 304 299 297 300 304 307 304 303 305 308 310 309 307 308 309 310 310 308 310 310 313 311 311 310 308 308 308 310 309 307 309 313 309 311 312 311 313 309 311 314 313 315 308 312 310 313 314 316 315 317 318 317 318 318 317 319 322 323 326 328 327 327 330 331 331 333
307 308 308 308 308 309 309 309 309 309 309 309 310 309 308 309 310 308 305 304 302 300 300 298 301 303 304 302 305 306 307 307 307 307 307 307 307 309 309 309 308 309 308 308 310 308 309 308 307 307 308 308 309 309 310 311 311 310 310 312 314 312 310 313 311 308 307 310 312 313 310 310 315 317 315 315 317 321 323 324 327 327 328 330 330 331 332
307 307 307 307 308 309 309 309 309 309 309 309 310 310 311 310 310 311 310 308 303 298 299 298 299 303 306 301 304 306 307 308 307 307 306 306 307 307 306 307 308 305 307 306 305 307 307 305 305 309 309 311 308 307 311 311 310 308 308 312 314 312 315 313 309 310 307 310 315 315 315 314 316 315 315 316 320 324 322 323 324 327 330 330 327 328 331
307 307 307 308 308 308 309 309 309 309 309 308 309 309 308 310 311 310 310 310 309 303 302 303 305 304 299 301 305 305 308 308 307 306 306 306 306 306 306 306 306 306 306 305 304 305 304 306 308 306 306 311 306 306 308 304 306 304 310 313 313 316 316 314 311 310 311 313 313 313 313 310 313 314 316 317 324 323 321 322 324 325 327 328 330 328 328
307 307 307 307 307 308 308 308 309 309 309 310 306 304 301 302 309 311 310 309 308 305 300 298 297 301 305 303 303 304 306 308 307 307 306 306 305 306 307 306 307 307 306 305 305 301 305 305 307 308 308 313 305 307 303 305 305 308 313 313 313 314 314 314 313 309 309 313 313 314 314 314 315 317 318 321 324 319 317 317 320 322 326 327 328 329 329
306 307 307 307 307 308 308 308 309 308 307 308 304 299 297 296 305 311 310 310 311 306 302 302 299 302 299 303 303 303 304 306 308 307 307 307 307 307 307 307 307 306 303 304 303 303 304 301 302 304 308 307 307 304 303 302 302 305 308 309 311 310 310 313 312 313 311 312 313 313 313 312 314 315 316 317 317 317 317 318 320 322 326 330 330 330 326
306 307 307 307 307 307 308 308 308 309 309 307 302 300 302 304 307 309 309 309 311 306 300 297 299 299 298 300 302 305 305 306 306 307 308 308 306 308 308 306 305 306 304 303 305 301 302 305 302 303 304 308 306 300 301 300 300 303 308 306 310 310 311 311 312 312 311 312 310 309 308 310 314 314 312 316 316 316 317 319 319 320 324 326 329 329 325
306 306 306 307 307 307 308 308 308 308 309 309 307 306 307 306 306 308 311 311 309 303 303 299 295 298 296 299 302 304 304 306 306 307 306 309 307 307 305 307 306 305 307 303 302 300 305 303 305 301 304 309 305 303 301 299 301 305 306 307 308 308 309 310 310 310 310 310 310 306 307 309 311 314 315 316 316 316 318 316 318 319 319 320 320 322 326
306 306 306 306 307 307 307 307 308 307 307 307 304 305 309 307 308 306 311 310 304 305 304 298 296 296 297 302 296 301 305 301 302 305 303 307 309 307 306 305 306 302 305 300 304 303 305 303 302 302 304 303 305 301 296 301 304 305 305 306 308 309 309 308 308 308 309 311 313 313 313 314 314 315 316 316 317 318 318 317 316 316 316 316 318 320 323
306 306 306 306 306 307 307 307 309 307 303 303 304 309 309 306 307 309 308 307 298 298 299 299 300 296 295 296 296 299 304 302 301 302 302 305 308 307 307 303 304 300 305 307 304 303 302 303 305 301 299 304 302 298 299 301 302 304 306 305 306 307 307 306 307 310 311 312 312 313 313 314 314 312 313 314 314 315 315 315 315 315 314 315 317 320 322
306 306 306 306 307 307 309 307 307 304 302 301 303 309 308 311 310 312 312 311 305 299 296 297 298 295 295 293 294 300 304 300 302 302 303 303 302 308 307 306 300 304 310 303 300 303 300 306 303 297 303 299 297 301 303 304 304 305 306 305 307 307 307 308 309 311 313 314 313 313 313 313 312 313 315 314 314 314 315 314 314 316 315 316 318 320 323
306 306 306 306 307 305 301 302 306 305 303 308 308 308 309 310 310 310 308 306 308 306 298 297 294 296 296 297 299 302 301 297 302 299 301 299 300 304 304 304 300 305 304 302 302 300 304 310 302 299 300 297 302 306 306 306 306 305 305 306 308 309 310 312 314 313 311 311 312 312 312 313 313 314 315 315 316 316 314 313 313 314 315 315 318 318 320
306 306 307 304 301 297 297 300 303 308 308 305 308 306 306 307 300 300 302 298 302 303 300 298 295 299 300 296 296 303 301 299 302 298 299 301 299 299 304 302 303 304 297 301 304 310 308 306 303 299 300 305 308 306 307 308 308 308 309 309 310 312 313 313 313 311 311 310 310 312 313 312 312 314 313 313 314 314 315 316 316 316 316 316 316 319 318
305 306 304 303 298 296 297 303 311 306 308 309 307 303 299 301 298 295 296 298 300 295 299 297 297 300 298 297 300 304 301 299 298 300 296 302 299 297 303 297 304 302 296 297 302 308 298 301 302 302 300 305 306 308 310 309 310 310 311 312 312 312 313 313 315 315 314 314 315 316 316 313 313 314 315 315 315 315 316 316 315 315 316 317 319 321 320
303 299 298 299 297 301 308 310 309 308 306 300 302 300 293 299 293 289 299 293 292 297 299 295 300 300 300 299 299 299 304 302 298 297 299 300 304 298 303 300 303 299 293 296 300 306 298 295 300 300 299 305 306 310 309 309 310 312 312 312 313 314 317 315 315 316 316 316 316 316 317 316 317 315 315 315 315 315 315 317 316 317 319 321 322 322 322
301 301 300 298 301 305 308 311 311 307 301 298 297 296 296 289 296 298 296 292 292 295 300 299 300 299 300 301 300 298 305 307 306 305 302 298 307 304 299 296 305 296 294 295 304 304 301 299 298 296 299 305 306 307 309 309 309 308 310 312 313 313 314 314 314 314 314 314 315 316 317 318 318 318 317 318 318 318 318 317 317 317 320 322 322 323 324
303 303 306 310 310 309 308 305 304 299 298 300 291 286 290 292 297 294 295 291 292 297 297 299 296 298 298 300 300 302 303 306 305 303 301 296 303 300 299 300 301 294 292 301 305 299 299 294 295 297 304 307 306 307 307 306 308 310 311 313 313 314 315 316 316 316 317 317 317 317 318 320 320 320 320 320 320 321 321 320 320 321 322 324 322 323 324
305 307 309 305 304 302 303 293 297 297 287 286 286 283 290 285 290 290 292 296 300 298 299 304 303 304 303 306 302 304 304 308 302 301 298 296 305 303 297 295 296 289 296 304 300 297 295 295 295 298 305 306 306 306 308 308 310 311 313 314 315 315 316 317 317 317 318 319 319 319 320 320 320 321 321 322 320 320 321 322 323 322 322 323 324 325 325
307 306 301 301 295 297 298 284 297 291 287 288 285 281 287 286 290 293 291 293 297 296 300 297 298 298 296 303 301 301 303 305 305 304 300 303 299 295 296 290 294 300 303 297 296 293 296 298 299 302 306 305 305 307 309 309 311 312 312 313 314 315 316 317 318 317 318 318 319 320 319 320 321 321 322 322 320 319 320 321 322 323 325 325 324 323 323
300 296 294 291 288 292 289 282 294 288 283 286 289 289 290 287 291 292 292 299 298 297 301 300 300 298 299 303 304 302 303 298 307 298 294 299 294 296 293 292 298 299 295 293 295 296 297 296 302 305 304 304 306 308 309 310 311 311 311 312 313 314 315 316 316 316 316 317 317 317 317 318 319 320 321 322 322 323 321 323 324 324 323 322 322 322 323
296 291 289 285 282 287 288 284 287 284 291 293 291 293 292 293 294 294 299 300 299 299 298 299 300 300 298 304 299 299 303 301 296 297 299 299 292 291 297 302 300 292 293 293 291 291 294 298 301 302 305 306 307 308 309 310 310 311 312 311 312 314 315 316 316 316 316 317 317 317 317 318 317 318 318 320 321 322 323 324 324 322 321 320 321 321 322
293 296 292 290 285 287 293 285 287 291 293 294 295 296 295 296 296 298 299 300 299 300 301 303 303 302 299 299 300 301 301 301 295 299 299 293 292 295 301 294 289 291 289 289 291 294 297 300 303 305 306 306 307 307 308 309 310 311 312 314 315 315 315 315 316 316 318 318 318 316 316 316 317 318 318 318 320 321 322 322 321 321 320 319 321 321 321
289 295 292 284 283 288 286 290 296 296 297 297 297 298 298 299 297 296 299 301 302 302 301 301 299 301 299 304 301 296 298 300 295 295 298 295 298 293 290 291 291 293 295 292 293 298 300 303 304 305 306 308 308 307 308 309 311 312 313 315 315 315 316 316 317 318 319 318 319 318 318 318 317 318 318 318 320 320 320 321 323 323 322 321 320 322 322
299 292 288 288 292 292 291 295 294 293 295 297 298 298 297 296 296 298 301 303 304 304 303 301 301 299 296 300 296 295 292 299 291 290 297 294 289 287 289 286 290 290 296 298 298 300 302 304 306 306 306 306 308 308 308 309 310 311 312 314 315 314 312 314 317 319 319 317 319 319 318 318 318 318 318 318 317 318 319 319 319 320 320 319 318 318 318
292 291 295 291 292 294 297 296 294 291 295 295 296 296 297 297 297 299 303 302 305 304 303 302 303 296 296 296 289 293 292 296 294 294 293 289 292 293 292 289 292 293 296 300 301 302 303 304 306 306 307 307 309 310 310 311 313 311 311 313 313 313 314 315 317 318 319 319 318 318 319 319 318 319 318 316 317 319 318 318 318 318 318 318 317 317 317
297 293 294 298 292 292 293 289 290 290 292 293 295 296 297 297 297 298 304 305 303 301 298 295 297 294 292 291 289 286 289 298 294 293 291 292 295 293 291 291 295 298 299 301 302 304 305 307 307 307 308 308 309 311 312 312 312 313 312 313 315 316 316 316 317 317 316 316 317 316 317 316 316 317 317 317 317 317 317 318 319 319 318 318 318 317 317
291 288 291 296 298 297 296 297 296 295 296 297 296 298 300 298 300 304 308 306 301 296 294 298 295 292 289 287 291 295 299 295 291 294 291 295 298 294 295 296 298 299 301 301 303 305 307 308 310 309 309 310 311 311 311 312 314 313 311 312 314 314 315 315 316 316 316 316 317 318 318 318 318 318 318 316 316 316 314 314 317 317 318 319 319 319 319
Wind_Speed
19 20 20 18 19 20 21 22 22 22 24 14 9 9 5 5 6 4 3 1 5 6 8 7 7 9 4 5 4 2 5 5 2 5 4 7 5 7 7 7 7 8 7 5 7 12 10 14 13 10 14 10 14 8 10 9 13 13 10 15 5 2 8 10 9 5 5 6 4 3 0 5 7 10 10 8 12 10 10 9 3 6 4 6 5 8 4
20 20 20 17 18 19 21 21 22 22 19 12 11 8 5 5 6 1 5 3 5 7 9 8 9 10 4 5 5 3 5 4 6 7 6 5 4 6 5 6 9 5 3 4 7 11 9 9 11 10 9 6 10 11 9 12 9 12 9 11 12 10 8 10 8 6 8 6 5 6 4 8 10 10 12 12 10 8 1 6 4 9 7 9 6 8 5
20 19 19 19 18 19 21 21 22 22 19 12 5 6 6 6 4 5 3 5 6 9 4 5 8 10 9 6 10 8 7 4 5 5 5 3 7 6 7 5 4 5 1 5 4 6 7 5 10 4 9 5 4 8 7 13 9 12 5 5 12 12 9 11 11 13 13 13 12 12 11 12 11 13 10 12 12 10 8 8 6 8 5 8 8 9 2
19 19 18 18 19 20 20 21 22 23 20 12 4 5 6 3 2 4 5 3 6 5 3 5 5 3 6 7 5 2 6 6 3 3 5 3 5 8 9 9 7 7 6 7 8 9 7 6 6 7 8 5 5 5 8 8 11 4 6 4 10 7 7 12 12 11 12 11 10 10 11 11 14 16 15 14 15 14 12 9 5 9 4 8 7 12 11
19 19 19 17 19 20 20 22 24 24 21 12 5 5 5 5 3 3 2 2 5 2 2 4 6 6 2 5 1 7 7 3 2 4 6 4 4 5 8 5 7 5 8 9 9 8 9 5 4 11 9 7 5 6 5 9 9 7 5 7 7 3 8 13 14 14 14 6 5 8 13 13 15 16 16 16 15 14 14 10 11 5 4 10 3 6 10
19 19 19 17 18 19 20 22 25 25 23 15 4 4 2 3 2 2 3 4 1 7 5 3 3 1 5 1 1 2 4 4 4 3 2 2 2 5 5 8 4 5 5 4 8 9 8 7 10 6 2 8 8 7 7 8 9 8 8 11 9 8 10 14 16 17 10 3 4 6 10 13 12 15 14 16 15 14 15 14 9 6 10 9 4 3 6
19 19 20 20 17 18 20 21 25 27 26 19 5 6 2 4 3 2 3 4 2 5 5 4 3 2 3 2 3 4 4 0 3 4 2 4 2 3 5 4 5 5 5 5 5 7 9 11 4 4 7 10 9 7 8 5 10 11 9 10 4 5 9 6 13 11 9 5 6 6 11 9 12 13 13 13 14 15 16 13 7 9 7 5 4 4 10
18 19 18 18 17 17 18 20 23 26 29 17 1 7 5 5 6 2 5 3 2 3 2 1 4 4 1 4 2 1 1 1 3 2 2 2 3 5 4 7 8 6 4 3 4 6 7 6 4 4 4 6 6 7 3 4 9 10 9 10 5 8 3 4 8 8 7 6 5 7 10 11 13 12 12 12 12 12 13 9 6 5 6 5 6 8 11
18 18 18 18 17 17 17 18 22 25 25 6 7 6 6 4 4 4 5 3 3 3 1 2 3 4 4 5 3 3 2 3 4 2 1 4 5 7 7 9 8 3 2 2 4 7 7 6 5 6 6 4 5 4 4 2 8 10 8 8 8 10 3 5 7 10 7 6 8 9 8 10 11 10 9 10 11 11 8 8 8 8 6 6 7 9 9
18 18 18 18 16 17 16 16 20 23 22 7 6 6 7 4 2 4 5 3 2 3 1 2 4 4 4 4 3 3 4 3 5 3 2 1 3 7 8 7 7 3 3 5 8 10 9 8 8 6 6 7 8 5 6 6 3 8 7 7 7 9 6 8 8 11 9 8 8 10 9 9 9 11 12 12 11 9 8 6 6 7 6 7 8 9 4
17 17 17 17 17 17 16 15 17 21 14 9 8 7 7 6 6 5 3 5 2 2 3 1 4 5 2 4 3 1 3 4 4 5 4 2 3 7 7 6 6 2 5 7 9 9 9 9 8 7 7 8 8 6 5 6 5 4 4 7 5 8 9 9 8 10 5 11 8 8 9 13 10 1 8 13 11 11 10 9 8 7 6 6 6 7 6
16 17 17 17 17 17 14 14 15 17 16 8 6 5 6 7 6 5 5 5 2 1 1 3 4 2 3 4 5 5 4 5 5 4 6 5 7 5 6 4 6 1 7 9 9 9 8 6 7 7 8 8 8 7 7 6 4 4 3 6 7 10 9 8 5 10 6 7 7 9 13 10 4 3 5 2 6 9 9 6 7 7 9 10 10 9 10
15 16 17 16 16 16 14 14 14 15 17 10 6 6 8 7 6 5 5 6 2 3 1 3 2 2 4 5 5 5 6 6 6 6 7 8 6 5 4 5 5 6 11 12 11 8 5 4 4 3 4 5 5 6 8 7 4 3 4 3 6 8 11 5 8 5 3 7 9 11 9 5 6 6 6 5 3 2 5 7 7 7 8 10 10 10 10
15 15 16 16 16 15 15 14 13 14 16 14 5 6 7 9 7 5 5 5 1 2 3 1 2 3 5 5 6 7 6 4 6 4 5 1 5 6 3 3 7 9 9 9 8 4 5 5 7 6 8 7 5 9 6 3 2 2 4 4 5 7 7 8 7 5 10 9 10 10 6 4 6 4 5 7 6 8 8 8 8 7 8 8 8 10 9
15 15 15 15 15 14 14 13 13 12 14 18 5 4 6 8 7 5 5 5 4 1 2 2 5 6 6 4 6 5 2 4 5 2 2 2 5 2 5 6 8 8 7 7 3 4 5 5 10 10 9 12 12 10 7 7 3 1 2 2 5 4 9 6 8 5 9 10 9 11 10 11 7 5 4 9 4 4 4 3 7 6 8 5 7 9 7
14 15 15 15 14 14 14 13 11 11 12 18 6 4 4 7 7 6 5 4 5 2 4 4 5 6 5 4 4 5 5 4 4 6 5 4 1 4 3 8 7 6 6 5 3 4 5 8 10 12 12 11 11 11 10 8 6 3 3 4 6 6 4 3 12 7 7 10 11 11 12 9 5 8 7 7 4 5 6 5 8 4 6 5 6 8 7
13 14 15 14 13 13 13 13 11 10 10 15 8 5 5 8 7 6 6 4 4 3 4 3 4 4 5 3 4 1 5 4 5 4 3 2 7 8 7 10 6 5 5 5 4 5 6 8 8 9 10 9 11 11 7 9 9 5 6 7 9 8 8 8 10 13 9 10 11 12 8 7 6 8 7 7 5 5 4 9 7 3 1 4 4 6 6
12 13 14 14 13 12 12 11 12 10 10 14 10 4 4 7 7 8 4 4 5 0 4 4 6 3 3 4 4 5 4 3 3 3 5 4 3 7 10 9 7 1 3 6 2 6 7 8 10 9 10 4 3 2 11 7 12 10 8 9 8 8 9 10 13 11 11 11 11 8 8 5 6 6 6 6 6 5 8 9 5 3 4 2 4 6 6
11 12 13 13 12 11 11 10 11 11 10 11 11 3 1 7 8 7 5 4 3 1 4 1 2 4 3 4 4 4 3 4 4 5 4 4 2 10 12 4 4 2 4 4 4 6 7 7 2 5 8 5 5 8 1 8 9 3 3 8 8 9 7 8 8 12 12 11 12 12 7 4 5 5 5 7 6 8 10 4 3 5 4 2 5 8 6
11 11 12 12 11 11 10 10 10 10 7 9 10 5 3 4 6 7 6 4 3 5 4 4 2 3 2 4 3 2 1 4 2 5 4 4 8 13 3 4 3 4 4 3 6 1 5 8 4 2 7 7 4 3 6 1 3 3 6 5 9 6 8 9 10 7 7 6 9 6 8 4 3 9 5 2 8 4 4 3 4 5 6 7 6 8 7
10 10 11 11 10 10 9 9 9 8 5 7 11 6 2 4 5 4 4 5 4 5 3 3 1 1 1 1 2 3 5 5 6 5 5 5 6 7 2 2 6 6 4 5 4 1 2 2 2 3 2 5 2 3 7 6 5 3 4 2 4 4 9 8 6 3 8 8 7 3 4 7 3 2 3 3 3 5 4 7 8 6 6 6 7 7 6
9 10 10 10 10 10 8 8 8 8 5 4 11 5 4 4 5 5 5 4 5 5 4 5 4 7 7 8 7 7 7 7 4 4 5 5 3 4 3 2 4 5 4 4 5 4 1 3 2 4 5 5 3 7 2 8 8 4 1 2 8 4 4 3 3 5 5 4 1 7 2 3 2 3 4 6 7 8 9 8 8 9 8 6 6 7 6
8 9 9 9 10 9 8 7 7 6 7 7 10 5 6 6 5 6 7 6 5 8 8 7 5 6 5 5 4 4 6 5 6 5 5 5 3 1 2 3 3 4 4 5 5 5 5 5 3 5 4 2 4 3 5 5 7 6 6 4 4 3 2 2 4 3 1 3 5 1 2 3 4 3 4 7 9 9 8 9 10 10 11 9 9 8 6
8 9 9 9 9 10 8 7 7 5 6 6 8 6 6 6 6 7 5 5 4 6 4 3 5 2 2 3 2 3 4 5 5 4 3 5 5 2 5 4 5 3 3 6 4 5 5 5 3 3 4 4 4 6 6 9 4 3 1 6 3 4 2 4 2 4 2 2 3 3 5 3 3 5 5 6 7 8 6 7 8 10 10 10 7 6 6
8 8 9 9 9 10 8 7 6 5 5 5 8 5 4 4 4 5 6 5 3 4 3 3 1 5 2 1 2 4 3 0 2 4 5 5 7 6 5 6 6 5 6 7 5 5 3 4 2 2 4 4 4 2 3 5 3 3 6 3 4 5 3 2 2 2 5 2 3 5 5 2 5 5 6 8 10 10 9 7 8 9 9 8 6 4 6
8 9 9 9 9 9 9 7 7 5 5 3 7 5 4 4 4 3 4 4 4 4 4 0 4 3 0 3 3 2 2 3 4 4 5 6 7 6 7 6 5 3 5 5 5 4 4 3 3 3 4 2 3 5 2 6 4 2 5 4 5 5 2 3 3 4 2 4 3 7 3 6 6 8 9 10 10 11 11 10 10 8 8 6 5 5 4
8 9 9 8 8 9 9 8 7 6 5 7 6 4 4 1 1 3 5 4 6 4 5 2 3 3 0 4 1 2 3 4 5 5 6 7 8 7 6 5 5 5 5 4 3 4 3 3 4 2 2 4 4 4 4 3 3 3 4 1 2 4 5 3 4 5 8 2 4 7 3 4 4 9 12 13 14 11 10 9 8 5 5 3 4 3 4
9 9 9 8 8 8 8 8 7 6 5 6 7 3 2 2 2 2 3 5 5 5 6 6 4 4 4 3 1 2 1 4 4 5 5 5 7 7 6 5 4 4 3 3 3 4 3 5 2 3 3 2 4 4 4 3 3 6 6 3 2 5 3 2 6 6 1 5 5 5 3 5 4 8 12 13 12 10 9 9 9 9 7 6 3 4 4
8 8 8 8 7 8 7 8 7 6 4 7 4 3 2 2 1 1 2 4 5 5 5 7 6 6 2 4 1 2 2 3 4 5 5 5 6 6 6 6 5 4 4 4 4 4 4 5 4 4 3 5 4 4 2 6 5 6 4 3 4 2 4 4 6 6 2 4 5 4 5 7 9 12 11 10 8 8 8 9 10 9 8 7 6 3 2
8 7 7 7 7 7 7 7 6 5 6 5 2 3 4 4 4 2 3 4 5 5 5 5 2 4 1 2 2 1 3 3 4 5 6 6 6 6 6 5 5 5 5 4 3 4 2 4 4 3 4 2 5 3 5 5 6 4 4 1 2 1 2 5 4 4 4 7 6 5 7 9 9 9 9 5 3 7 9 10 11 12 11 7 5 2 2
7 7 6 6 6 6 6 6 6 4 5 5 3 3 3 2 6 1 2 4 5 5 4 4 5 4 2 2 2 3 5 4 3 3 5 6 5 6 5 4 4 4 4 4 4 5 4 4 4 3 2 4 4 4 5 5 6 5 4 1 3 3 2 3 3 3 5 7 9 9 8 9 8 8 6 4 8 10 10 10 10 10 9 10 8 5 4
7 6 6 6 6 6 5 5 6 6 5 5 5 3 5 5 5 5 4 5 5 5 4 5 4 3 1 3 1 2 5 4 4 4 3 3 4 4 5 5 4 4 5 4 3 3 5 5 6 4 5 4 5 6 6 7 8 6 2 1 0 1 1 4 5 6 8 8 10 12 11 7 5 6 8 10 11 11 11 10 11 9 8 7 8 8 5
7 6 5 5 5 5 5 5 6 5 5 7 14 13 11 10 9 7 5 4 5 3 3 4 4 3 2 4 1 2 5 4 4 3 4 2 3 4 5 5 4 3 4 4 4 3 2 4 4 7 6 3 5 5 7 9 8 6 6 5 6 7 8 9 9 8 7 7 7 9 9 9 9 10 10 11 11 11 10 11 10 9 9 9 9 9 8
7 6 5 4 5 5 5 5 4 5 7 6 6 4 4 2 4 3 3 2 3 2 2 3 3 2 0 3 4 5 5 3 1 2 2 3 1 4 3 4 4 4 6 7 4 5 4 4 5 5 2 5 5 6 7 8 8 9 9 9 8 8 7 7 7 7 7 7 6 7 8 9 10 10 10 10 11 10 10 10 11 11 11 11 10 10 9
7 6 5 4 4 4 3 5 5 5 4 4 5 1 6 4 6 1 5 3 4 2 3 2 2 4 2 4 3 5 5 4 1 2 3 4 2 3 3 4 5 4 5 5 5 5 5 5 4 6 7 4 6 7 7 7 8 6 5 6 6 6 7 8 7 5 6 7 9 9 9 10 11 11 11 11 11 11 12 11 11 11 12 11 10 10 10
7 6 5 5 4 5 4 5 5 4 4 4 2 8 4 4 6 3 1 2 4 3 2 1 2 3 3 2 2 4 4 3 1 2 0 3 4 3 3 3 5 3 4 4 5 5 6 4 4 7 5 7 6 6 5 4 6 5 6 7 6 7 8 9 10 11 10 10 12 11 12 11 11 11 11 12 12 11 11 12 12 11 12 11 11 11 9
8 6 4 4 3 2 5 5 3 5 1 6 8 6 5 4 2 2 3 3 4 3 3 3 3 1 2 3 2 2 4 0 2 2 2 3 1 1 3 3 5 3 2 5 6 6 4 4 6 7 7 8 5 3 5 5 5 7 8 8 7 7 8 8 9 10 11 11 12 11 11 12 12 10 10 11 11 12 13 14 12 12 12 12 11 11 10
8 5 4 4 4 4 4 5 3 3 6 0 5 4 5 4 3 3 2 3 2 2 3 2 4 1 0 3 1 5 4 1 0 2 2 1 3 3 2 4 2 1 5 2 2 2 2 4 6 8 8 7 7 8 6 6 7 7 7 7 6 5 5 6 8 9 11 12 11 11 11 12 13 12 13 14 14 14 13 12 12 11 12 12 11 10 11
7 5 4 4 3 5 2 4 5 2 4 3 4 3 2 0 2 2 3 3 2 3 4 4 2 1 2 2 1 5 4 4 2 2 1 4 3 2 1 4 4 2 3 5 4 4 6 6 6 6 7 6 7 5 5 8 8 7 4 3 3 5 6 7 7 9 9 10 11 12 12 12 13 14 13 14 15 15 14 14 13 13 12 11 10 9 10
5 5 5 4 5 2 5 4 1 3 5 5 3 3 2 3 2 1 2 1 2 2 2 4 1 1 2 3 2 4 3 4 3 1 3 2 1 4 2 3 2 3 3 5 1 3 5 5 3 4 5 1 2 2 3 2 1 2 3 5 7 7 7 8 9 9 11 12 12 13 14 15 15 14 14 14 15 16 15 14 13 11 9 9 8 8 9
5 4 4 4 4 3 3 3 2 3 3 3 3 3 2 1 3 1 1 2 2 3 1 2 4 3 3 2 2 0 5 2 1 1 4 1 3 3 3 2 3 3 4 5 3 1 4 5 5 6 4 3 1 0 0 1 3 7 8 9 10 10 11 11 11 12 13 13 12 12 13 14 15 15 15 16 15 15 15 14 13 12 9 8 8 8 8
4 1 2 3 3 3 5 4 3 3 1 1 2 2 2 1 0 2 3 2 4 3 5 3 5 3 5 3 1 2 4 3 2 3 2 2 4 4 3 2 1 3 2 3 4 3 3 5 4 3 2 1 2 3 5 7 8 9 10 11 11 11 11 11 12 12 12 13 12 12 12 14 15 14 14 14 13 12 12 11 11 10 8 6 6 7 6
8 3 2 4 3 3 1 2 2 1 2 2 1 2 2 2 4 3 4 3 2 3 4 3 3 5 5 2 4 2 4 2 2 1 2 2 1 3 3 1 2 3 2 5 3 4 5 5 5 4 2 1 3 5 6 7 9 9 9 9 10 10 11 11 11 12 12 13 13 12 12 13 14 14 13 13 13 13 11 9 8 6 5 4 4 7 9
5 4 4 3 2 2 2 4 2 2 2 1 3 3 5 3 5 3 4 4 4 3 4 5 5 6 4 1 1 3 4 4 0 1 1 0 2 2 2 2 4 3 5 5 5 6 6 4 5 5 6 5 4 6 8 9 10 11 11 11 12 12 11 11 11 12 12 11 11 11 11 11 12 13 12 11 11 11 8 6 5 4 5 8 8 8 9
6 3 1 1 0 1 1 2 1 1 4 5 3 4 4 3 5 6 2 5 3 3 4 2 3 4 4 3 2 2 2 2 2 2 1 1 2 2 3 3 4 4 4 5 4 5 4 6 2 2 5 6 8 11 13 14 14 13 13 13 13 12 11 10 10 10 10 10 11 12 12 11 10 9 7 5 4 5 7 7 8 10 11 10 8 7 6
5 3 3 3 1 1 2 3 2 3 4 4 5 4 3 2 0 3 6 1 2 3 4 4 4 3 2 1 2 3 2 1 2 1 1 2 2 3 1 1 3 5 5 5 6 6 6 6 6 7 9 10 11 15 17 16 16 14 13 13 12 13 12 11 9 9 9 10 9 9 9 9 8 7 6 5 2 2 4 5 7 9 12 13 11 10 8
3 1 0 1 2 1 3 3 5 4 2 5 4 3 1 2 1 3 3 2 3 3 3 1 1 1 1 2 2 4 2 1 2 2 2 3 3 1 1 4 5 5 5 6 6 6 6 6 8 9 11 13 16 18 18 17 15 14 14 13 13 13 11 10 8 8 8 10 10 8 7 6 6 5 4 3 3 3 5 7 8 8 9 10 9 8 8
2 1 1 2 3 4 6 5 2 1 2 2 2 3 2 3 4 5 5 2 2 1 3 4 4 3 4 2 2 1 1 0 2 2 1 3 1 3 2 3 5 5 5 6 7 7 8 8 10 12 13 15 17 18 17 15 15 15 15 12 11 11 9 8 8 7 7 8 7 6 4 4 4 2 2 3 6 7 7 8 8 8 9 9 9 7 7
1 1 2 1 1 3 5 3 3 2 2 2 2 4 4 4 5 4 4 2 2 3 1 1 2 3 1 2 1 1 1 1 2 1 2 3 2 3 3 4 5 7 4 4 7 7 9 11 12 14 16 16 17 16 15 13 13 14 11 9 7 6 10 11 9 7 6 6 5 5 4 3 1 2 5 7 8 8 7 8 9 8 7 7 7 7 6
2 1 1 1 3 3 3 3 4 3 3 3 3 4 4 4 4 4 2 3 2 3 3 4 1 1 2 1 0 1 2 2 2 0 3 4 5 4 4 7 5 6 6 6 8 9 11 11 12 14 15 15 16 15 13 11 10 9 11 9 5 6 7 8 8 6 4 3 3 3 3 2 5 5 6 6 5 4 5 5 5 6 4 3 4 5 5
1 1 2 3 3 1 3 5 6 5 4 4 3 3 3 4 3 4 2 3 3 3 3 1 2 0 1 0 1 1 0 0 3 4 3 4 2 3 6 7 7 6 8 8 8 9 10 10 11 11 11 11 11 12 10 8 8 8 8 6 5 6 6 6 5 4 3 1 1 1 4 4 5 5 5 4 3 3 5 5 4 4 4 3 2 3 5
2 3 4 5 4 2 3 2 3 3 2 2 2 2 1 2 2 3 3 3 3 4 2 2 2 1 0 2 2 2 1 2 3 4 5 5 4 6 6 6 8 8 9 12 12 11 10 11 10 11 10 10 9 9 8 8 7 7 7 7 6 6 5 4 2 2 1 0 1 1 1 2 3 2 2 2 1 2 4 3 2 3 4 4 4 4 4
Wind_Direction
340 340 340 339 337 336 334 335 334 337 341 345 343 317 262 256 301 51 155 120 225 249 212 184 205 223 215 40 249 230 227 250 159 251 222 267 234 263 244 254 252 226 245 214 222 200 205 203 209 195 213 210 207 131 183 173 181 205 192 199 132 57 200 208 226 168 81 109 114 133 53 253 225 215 256 229 223 215 238 250 140 236 128 237 222 249 277
340 340 339 337 336 336 337 335 335 337 350 337 315 293 295 310 296 224 151 195 218 241 213 191 209 219 202 248 264 204 278 239 224 224 231 253 238 253 265 243 237 305 296 252 232 185 216 187 225 211 208 208 86 140 172 182 189 206 164 208 147 212 194 229 187 189 197 184 181 197 175 216 228 227 211 229 243 236 227 82 121 253 207 250 262 266 280
341 340 339 339 337 339 338 336 334 337 343 342 309 301 316 289 245 253 249 188 203 221 265 261 211 208 224 215 230 218 211 233 282 295 264 257 265 279 255 275 350 256 281 253 262 197 281 175 203 306 199 168 142 149 176 191 208 212 52 341 155 219 170 199 206 205 199 200 203 202 195 207 217 230 216 208 218 199 212 218 191 241 207 220 244 256 273
342 341 343 343 342 341 340 337 336 336 342 337 274 280 280 298 266 155 185 192 191 250 306 292 301 224 205 223 221 235 240 169 158 246 246 268 275 269 284 285 271 271 228 218 210 209 202 275 160 204 186 150 160 153 191 200 218 139 116 183 178 223 191 202 221 218 216 219 218 205 212 195 213 204 209 202 213 219 221 250 237 243 171 223 224 244 281
343 343 344 344 343 343 341 339 337 337 338 342 284 274 264 302 286 352 170 160 218 208 213 243 238 250 146 234 123 223 237 285 217 149 236 118 312 285 256 273 260 220 229 215 210 201 203 202 223 198 201 156 130 145 205 197 213 109 173 203 200 177 210 206 217 234 241 257 184 179 215 222 211 213 210 211 207 209 219 218 239 199 185 248 199 185 241
346 345 344 345 345 345 344 342 340 338 336 339 271 283 285 268 65 308 30 298 152 207 157 357 256 327 231 220 222 259 243 221 239 167 214 326 56 286 172 227 251 323 319 318 223 177 212 190 210 167 245 164 150 158 175 191 161 171 205 194 203 203 222 203 217 220 221 206 194 176 211 232 233 227 212 203 200 203 218 220 225 180 245 270 88 171 230
346 347 348 350 345 347 347 346 345 341 336 331 273 312 53 334 357 50 339 267 48 355 4 323 312 191 245 150 233 214 249 173 30 334 325 230 104 2 253 155 357 328 315 296 255 176 207 194 198 228 180 208 177 168 151 160 163 190 188 191 197 223 228 175 211 217 207 183 196 200 229 219 227 225 213 203 201 206 216 220 210 224 232 259 163 212 257
348 348 350 350 347 349 350 351 350 345 338 316 22 27 330 32 337 31 343 273 327 343 306 286 237 204 131 238 110 299 349 324 16 156 306 239 95 4 282 343 338 328 308 268 273 33 12 357 207 56 300 180 242 204 231 144 180 185 190 185 168 233 155 190 191 207 192 172 168 191 219 211 220 216 208 204 204 208 215 223 194 211 241 247 261 270 273
347 347 350 353 350 351 355 358 356 349 340 10 24 51 16 350 345 322 312 260 50 296 304 233 235 195 170 231 114 240 88 33 357 324 1 8 35 15 0 347 328 321 253 148 51 20 354 323 328 326 319 268 35 297 139 279 177 194 177 199 160 213 172 191 191 220 186 175 187 183 199 215 209 192 189 188 190 197 182 210 180 212 219 224 248 257 266
346 350 351 353 353 356 0 5 2 356 337 3 354 30 356 306 179 258 289 283 70 287 177 220 238 198 57 6 43 326 53 356 333 213 144 305 31 10 344 345 314 207 167 48 3 340 319 306 307 312 299 291 292 285 291 312 290 185 193 187 194 201 176 186 193 222 212 159 190 179 186 202 213 207 199 191 199 214 205 206 170 210 246 251 251 257 298
347 349 352 353 355 0 3 9 9 1 355 26 359 12 5 5 339 320 269 275 131 343 264 163 283 53 331 49 335 314 311 335 2 309 114 194 99 2 340 338 338 354 54 1 332 307 294 289 289 285 264 269 272 273 269 258 261 295 202 183 191 190 198 215 193 235 183 159 181 183 208 223 225 231 213 200 213 210 210 208 200 202 199 250 274 293 310
348 348 352 352 355 358 359 13 13 7 358 8 345 353 1 331 291 275 305 283 94 315 278 44 23 66 354 6 323 319 323 331 333 338 303 323 331 336 342 351 330 129 16 324 317 303 278 255 253 238 256 254 258 258 245 231 209 229 244 232 184 202 204 225 178 233 192 152 165 214 229 239 85 123 71 129 212 212 226 218 205 203 210 238 250 255 260
349 349 348 350 353 357 1 15 13 9 360 349 355 359 349 334 300 326 319 304 7 3 345 89 34 9 346 336 331 321 324 310 297 296 280 289 304 322 19 345 340 345 327 320 315 293 241 195 179 229 211 212 212 206 209 207 204 220 215 251 226 198 209 178 215 220 159 190 212 234 238 80 127 104 113 89 115 142 204 220 204 232 241 231 242 257 264
341 347 348 348 352 356 2 9 13 7 359 344 357 359 351 349 345 339 350 314 72 48 354 232 145 27 353 356 340 319 301 295 306 283 283 169 302 317 352 350 341 316 309 312 291 256 211 202 199 192 187 199 181 209 160 162 66 213 213 200 242 238 212 210 221 173 228 224 228 239 80 165 135 144 181 177 173 175 202 240 232 213 233 237 243 252 260
336 343 346 347 350 352 359 4 12 5 358 342 327 5 4 357 348 334 321 292 318 50 314 315 30 350 331 343 356 319 300 337 303 193 303 293 269 340 333 339 324 310 307 303 285 225 249 208 217 219 202 215 218 218 172 213 125 140 241 221 216 220 232 198 230 204 235 236 229 235 232 249 210 189 176 195 187 195 161 251 254 210 252 252 251 251 259
331 338 341 344 348 350 353 359 12 5 4 340 325 10 28 0 332 308 305 313 315 246 87 32 352 323 318 336 9 358 354 320 346 298 261 170 356 341 25 346 321 296 285 265 276 278 223 220 213 218 222 218 218 229 213 195 200 138 193 193 203 206 227 236 221 214 220 232 240 235 248 241 263 179 149 161 167 177 126 238 262 215 253 246 260 258 249
330 334 338 340 346 346 349 357 7 10 3 349 335 349 20 11 354 340 325 306 271 352 55 0 324 299 282 251 193 135 8 350 352 330 268 98 357 334 337 345 298 246 313 290 246 243 214 223 233 232 231 233 222 226 230 225 216 176 158 199 200 202 205 210 225 230 218 235 235 246 236 260 126 106 130 134 166 133 203 262 267 95 272 333 256 240 236
326 331 336 337 343 343 347 354 360 5 6 346 327 340 8 11 355 328 291 307 311 25 71 22 335 317 9 15 344 359 304 292 270 269 266 306 329 3 340 339 347 298 304 282 269 238 234 225 223 220 229 116 325 135 231 217 228 206 196 196 196 197 209 211 232 226 221 219 249 249 239 115 101 99 116 142 151 198 251 253 293 35 312 288 242 240 236
321 328 332 335 337 341 343 347 352 2 6 352 328 275 58 7 354 343 311 287 299 311 82 23 327 311 345 298 287 318 336 347 324 301 312 242 76 333 300 302 308 323 348 332 279 248 239 216 254 252 233 165 207 240 155 219 232 200 193 195 201 212 218 225 236 236 231 231 240 243 258 71 84 111 137 148 193 231 261 8 7 355 336 238 249 274 253
318 321 328 333 336 338 341 344 350 1 5 356 330 338 344 10 5 356 345 340 318 293 318 355 320 288 48 311 331 305 275 205 358 314 341 329 13 331 256 191 125 308 270 319 247 227 258 235 223 212 232 221 186 28 226 167 45 234 213 224 239 208 228 215 224 231 247 233 244 238 245 127 215 125 137 125 256 310 40 339 347 13 339 320 271 256 264
310 316 322 329 337 336 338 339 348 355 10 354 324 331 317 67 357 358 338 318 303 299 127 87 336 313 341 312 344 330 305 331 358 327 7 327 345 311 295 35 4 336 7 343 296 101 323 258 172 244 7 266 124 219 237 220 182 62 324 270 245 68 239 236 232 200 243 223 232 261 37 95 116 264 278 131 291 12 356 348 311 326 323 318 305 278 276
307 314 319 328 333 336 338 338 342 345 358 337 307 313 308 7 334 348 328 300 273 266 320 350 306 286 287 287 283 279 281 287 301 318 309 317 345 348 8 275 7 1 16 320 262 212 176 1 268 243 209 187 173 233 265 225 219 109 119 289 216 63 345 5 271 139 252 287 11 87 131 1 342 312 312 302 305 299 304 294 289 292 285 290 283 288 291
305 308 316 322 328 330 336 336 334 344 338 347 318 341 326 334 338 333 302 277 249 252 263 266 259 255 252 251 261 268 270 274 279 263 257 277 288 196 353 355 58 12 17 3 356 335 349 319 341 358 296 303 306 208 200 254 249 167 196 63 43 76 16 263 272 104 81 103 47 7 38 5 350 340 346 321 320 319 310 296 289 277 275 272 271 277 285
296 301 309 320 322 327 335 333 330 341 332 340 323 340 333 337 332 329 305 259 275 306 230 223 252 166 132 120 156 162 205 217 236 263 257 252 275 143 137 58 347 258 77 22 359 323 340 312 332 335 288 35 315 247 236 218 203 38 192 155 131 66 5 236 225 80 254 167 93 21 4 348 356 8 5 336 326 316 310 294 281 284 290 282 268 263 252
290 296 304 314 318 323 329 326 327 323 330 326 309 302 297 297 342 340 335 340 338 321 316 142 128 49 71 18 270 248 241 336 154 224 216 223 247 299 8 29 354 349 344 331 320 286 264 299 277 232 271 72 315 278 57 274 118 5 246 143 161 163 342 278 111 140 248 67 83 7 331 42 67 30 14 6 356 341 330 314 293 289 291 290 282 240 224
286 295 298 304 318 319 320 324 321 323 318 332 293 316 330 324 321 294 276 281 268 271 288 339 112 149 61 248 255 6 42 210 211 214 239 243 251 273 298 319 312 302 294 296 302 304 331 285 291 303 281 72 331 296 6 14 359 12 305 36 20 29 249 229 145 240 92 137 81 3 326 134 82 40 26 7 349 334 323 322 310 289 269 252 236 235 199
279 286 290 299 309 321 323 323 318 320 315 308 296 317 305 327 335 345 7 352 311 202 229 262 59 119 309 288 24 176 193 223 220 235 230 237 249 251 254 275 292 300 292 289 262 302 277 291 287 285 333 25 341 313 323 271 295 300 256 138 167 229 219 93 228 223 232 244 57 10 266 199 14 359 0 350 345 333 323 319 313 301 289 252 200 171 175
266 273 283 294 305 315 323 316 313 313 304 291 276 299 286 269 86 21 18 4 344 336 332 319 308 359 334 250 159 265 206 207 231 237 242 240 237 248 262 261 271 282 276 276 246 208 245 250 218 34 282 338 278 227 200 277 272 257 251 233 178 251 14 269 252 262 317 75 88 45 347 305 324 337 337 334 340 337 326 325 322 323 313 288 249 154 142
254 269 281 292 303 308 312 310 312 308 320 286 297 266 216 233 206 116 351 13 338 315 287 281 277 268 274 57 17 247 170 248 244 239 244 240 235 240 245 252 260 273 277 272 283 289 278 284 332 299 2 30 298 276 265 239 227 244 247 220 225 30 358 324 11 340 349 64 46 2 343 316 316 317 321 327 358 348 341 331 332 321 300 301 306 297 186
246 259 274 287 297 303 301 301 301 296 285 279 287 255 260 178 190 236 37 347 351 327 307 328 282 93 5 213 203 263 294 250 235 229 231 235 229 229 233 241 244 251 275 289 314 270 294 292 287 275 257 184 272 321 269 256 250 239 95 39 21 59 78 50 9 336 332 360 328 337 310 304 297 299 302 308 10 356 344 338 337 331 320 303 283 270 237
239 253 269 285 296 302 303 289 282 283 270 260 259 256 235 187 113 219 53 314 340 325 312 283 284 324 243 99 277 302 321 310 269 250 219 220 225 223 223 231 248 246 245 238 241 263 296 261 264 247 252 221 264 266 275 278 263 247 104 12 20 332 49 58 31 328 320 315 314 306 296 288 290 286 284 315 347 341 333 328 329 324 328 319 296 265 233
232 245 260 277 286 296 301 278 269 253 246 249 245 303 4 4 357 345 348 295 315 284 311 306 263 197 347 150 172 347 303 300 265 235 177 207 196 192 200 212 230 204 245 261 270 277 245 261 267 267 272 136 180 257 255 254 252 251 65 272 357 293 330 290 296 310 309 311 306 302 291 292 310 322 318 325 323 324 317 317 312 318 319 303 299 288 261
223 231 248 263 282 285 279 267 269 258 265 314 322 298 277 276 283 278 247 257 243 297 307 288 303 352 263 75 135 102 335 260 217 247 143 188 169 180 192 190 218 219 160 245 216 244 241 240 236 255 242 233 245 249 251 246 250 264 275 278 279 288 298 300 296 293 288 287 286 285 294 302 307 307 314 310 308 309 311 306 309 306 291 282 267 262 252
210 220 230 251 267 271 254 255 256 275 277 267 247 214 117 110 222 186 294 239 291 307 278 298 305 270 314 115 221 78 329 311 92 306 172 124 60 224 171 171 176 227 174 216 186 225 244 265 249 257 233 217 219 254 252 254 262 270 273 271 276 285 289 290 287 280 273 270 270 273 283 293 296 297 293 294 298 299 299 301 298 294 292 284 275 264 262
205 209 220 236 251 259 245 206 208 220 249 249 254 281 70 90 346 180 225 261 256 191 220 196 268 285 243 181 196 79 347 289 333 25 316 103 206 262 150 219 136 242 152 206 244 235 244 233 250 247 238 222 218 229 244 257 256 253 263 274 270 277 280 275 268 283 300 307 299 293 293 290 291 289 294 298 296 298 298 294 289 286 283 278 275 265 248
195 187 209 222 242 239 216 217 232 222 214 234 222 80 17 289 201 226 239 260 295 313 278 325 272 292 331 296 71 75 321 260 1 249 226 314 204 190 265 244 229 198 97 191 240 206 235 199 215 241 234 234 230 225 244 253 257 241 250 266 273 276 286 296 303 305 302 301 295 292 289 289 285 287 290 288 288 288 287 287 284 279 275 273 274 279 268
180 190 198 218 221 212 221 215 176 238 304 25 30 344 303 281 143 189 195 220 170 273 295 319 264 295 327 349 333 65 312 235 52 237 181 228 299 106 228 200 254 92 210 226 230 236 220 162 236 250 240 242 247 220 264 273 263 269 271 280 284 281 287 298 312 311 301 296 296 295 293 289 286 285 283 284 286 287 283 279 280 276 272 269 268 264 253
175 187 193 201 203 211 205 202 191 73 71 304 272 248 181 215 207 170 179 227 163 235 222 241 266 328 226 270 37 48 287 104 267 302 142 53 250 200 221 267 346 17 258 247 217 166 227 192 229 248 257 252 263 260 248 242 255 264 263 264 279 301 316 309 307 303 301 295 286 291 295 297 299 301 296 293 291 288 282 281 280 276 272 271 271 274 273
169 177 211 208 210 203 203 109 70 78 237 172 236 240 173 354 239 214 190 158 153 226 195 234 250 120 241 234 130 68 345 337 309 240 230 81 297 155 201 239 145 249 263 263 194 150 243 224 232 235 252 242 242 228 234 258 261 264 291 344 340 313 310 303 302 297 296 295 298 298 294 294 294 293 291 289 285 279 278 276 272 269 268 268 268 270 267
174 185 198 194 216 138 78 115 184 218 194 192 183 259 193 186 226 194 77 239 210 218 180 210 188 231 288 320 329 110 30 305 304 58 1 97 46 314 49 290 42 285 262 265 110 126 276 280 267 258 260 256 111 104 272 289 299 29 352 329 324 324 320 309 304 301 295 292 290 288 287 284 283 283 283 283 283 282 279 275 271 266 262 262 266 267 266
192 201 195 204 157 131 116 126 180 214 201 184 161 212 201 195 215 243 184 232 236 151 191 279 138 186 159 194 258 199 93 270 139 344 289 304 44 275 252 232 30 292 267 250 68 347 268 261 265 266 285 77 81 242 71 318 326 334 336 336 330 325 316 307 302 296 294 294 292 289 286 284 284 283 282 282 281 279 278 275 273 271 258 251 246 241 245
161 202 87 69 65 124 142 163 196 175 91 197 191 182 194 186 15 217 248 242 149 170 144 210 171 202 138 203 130 302 99 24 359 348 308 264 35 317 290 316 262 272 280 49 10 285 269 275 278 273 89 117 294 6 352 335 342 335 332 331 323 316 310 305 300 296 294 291 290 289 287 284 284 285 282 280 278 276 273 272 270 265 256 255 255 239 210
105 125 132 154 149 182 175 161 164 255 153 121 133 147 202 194 215 218 161 213 17 265 112 252 51 59 83 246 121 5 38 2 310 113 274 345 49 237 264 240 250 241 288 9 302 280 267 268 270 290 54 79 8 349 341 330 324 316 316 314 308 305 303 298 295 294 292 292 292 291 290 289 287 286 287 282 275 266 260 257 261 263 258 244 194 141 134
127 144 170 149 169 134 168 158 137 166 122 166 158 171 182 194 179 175 223 163 149 214 159 182 165 220 134 82 356 125 163 144 128 248 225 206 292 272 270 257 242 333 338 265 250 256 269 283 286 326 352 325 336 342 332 328 326 318 310 307 308 303 298 297 296 295 296 295 293 292 289 290 294 291 283 270 261 256 249 234 218 203 152 139 143 144 133
152 135 89 103 163 133 152 80 218 214 180 177 219 197 175 202 139 198 145 76 224 105 147 165 137 203 122 113 163 95 308 98 121 272 58 329 263 261 259 284 344 316 277 278 276 275 263 267 257 218 274 306 322 317 315 311 309 305 303 299 296 297 295 292 294 297 297 300 298 297 295 294 290 287 293 299 292 262 223 182 151 141 138 140 129 107 91
161 143 136 143 100 272 235 138 145 210 220 190 207 205 185 82 146 153 79 145 128 136 167 160 166 196 136 97 301 77 89 302 233 167 133 249 288 272 16 304 263 280 282 274 268 271 285 300 311 327 359 355 334 319 311 308 304 301 296 294 296 294 289 286 286 294 305 308 309 305 299 293 292 288 274 264 253 88 112 139 154 145 138 131 126 123 118
109 127 166 243 122 173 229 181 193 210 177 182 190 182 168 75 71 48 98 176 150 111 98 66 67 304 202 137 173 153 140 167 261 137 227 251 255 288 142 270 263 245 264 276 276 281 289 314 346 1 348 332 316 311 307 302 298 295 294 294 290 287 282 281 291 295 303 316 321 318 313 302 290 270 260 247 218 171 148 147 142 129 120 115 117 115 115
137 111 225 178 171 177 202 216 236 198 190 200 177 202 180 162 182 175 172 173 77 202 170 185 185 173 155 97 266 331 57 178 272 219 276 310 319 276 286 271 257 268 263 275 286 308 312 324 339 336 325 318 315 312 309 305 299 295 294 292 289 284 274 270 285 292 306 321 322 316 308 284 267 253 231 162 141 135 134 124 110 100 100 107 111 112 114
79 190 193 222 207 197 222 179 187 206 192 177 179 185 179 187 193 142 131 167 145 99 56 288 57 263 87 27 299 267 234 175 246 179 175 219 237 232 232 258 280 284 293 302 304 326 329 328 324 322 317 313 314 312 305 301 305 301 293 286 283 287 295 290 282 284 299 312 329 320 322 327 357 101 116 121 116 101 88 82 78 73 65 70 82 88 95
184 165 269 236 209 209 223 222 235 210 193 179 186 176 183 194 179 134 138 150 131 129 131 119 150 271 32 306 243 266 267 212 276 300 261 248 252 267 273 272 273 284 309 339 335 326 321 320 319 313 309 307 304 304 301 302 310 311 298 296 325 301 277 273 285 290 312 327 322 325 351 34 65 54 57 68 76 79 82 83 89 92 103 122 118 118 126
298 283 245 275 291 85 196 209 204 193 183 190 182 164 191 192 170 140 182 167 163 176 209 246 67 167 206 141 322 238 235 195 237 229 238 270 266 254 254 269 289 318 337 344 323 316 313 312 309 301 296 297 308 323 324 318 320 313 302 307 302 284 285 278 273 277 275 272 35 316 33 36 41 39 34 32 44 59 71 58 60 81 92 100 133 146 173
194 205 213 185 211 265 255 296 290 250 167 197 170 150 178 140 144 125 158 200 173 231 172 143 209 193 212 227 222 310 37 229 249 257 253 242 235 260 267 290 311 335 333 316 311 312 307 301 294 300 309 319 323 333 333 328 330 337 342 337 329 321 308 300 281 270 253 99 17 48 80 44 14 16 11 345 88 114 107 111 118 126 141 163 172 175 172